�����͌���@�Y���u�C�̈ړ��ʁi�������j,,,,,,,,,,,,
�@,Time,Time int.,,Lat.,,Long.,,Distance,,Direction,Speed,
Date(yyyy/mm/dd),(hh:mm),(hour),(min),(deg),(min),(deg),(min),(miles),(meter),(deg),(m/s),(knots)
2005/11/15,9:40,0,,36,47.73,137,4.146,,,,,
2005/11/15,9:45,0,5,36,47.736,137,4.2,0.04,81.09,82.19,0.27,0.53
2005/11/15,9:50,0,5,36,47.76,137,4.26,0.05,99.68,63.61,0.33,0.65
2005/11/15,9:55,0,5,36,47.772,137,4.314,0.04,83.33,74.61,0.28,0.54
2005/11/15,10:00,0,5,36,47.772,137,4.35,0.03,53.55,90.06,0.18,0.35
2005/11/15,10:05,0,5,36,47.784,137,4.392,0.04,66.3,70.5,0.22,0.43
2005/11/15,10:10,0,5,36,47.802,137,4.458,0.06,103.66,71.32,0.35,0.67
2005/11/15,10:15,0,5,36,47.826,137,4.476,0.03,51.84,31.15,0.17,0.34
2005/11/15,10:20,0,5,36,47.838,137,4.542,0.05,100.65,77.32,0.34,0.65
2005/11/15,10:25,0,5,36,47.856,137,4.56,0.02,42.72,38.86,0.14,0.28
2005/11/15,10:30,0,5,36,47.856,137,4.638,0.06,116.02,90.05,0.39,0.75
2005/11/15,10:40,0,10,36,47.898,137,4.692,0.06,111.74,46.01,0.19,0.36
2005/11/15,10:45,0,5,36,47.91,137,4.704,0.02,28.48,38.86,0.09,0.18
2005/11/15,10:50,0,5,36,47.91,137,4.746,0.03,62.47,90.05,0.21,0.4
2005/11/15,10:55,0,5,36,47.934,137,4.776,0.03,62.94,45.2,0.21,0.41
2005/11/15,11:00,0,5,36,47.952,137,4.812,0.03,63.05,58.18,0.21,0.41
2005/11/15,11:05,0,5,36,47.976,137,4.836,0.03,56.96,38.86,0.19,0.37
2005/11/15,11:10,0,5,36,47.988,137,4.854,0.02,34.78,50.39,0.12,0.23
2005/11/15,11:15,0,5,36,48.018,137,4.89,0.04,77.11,44.03,0.26,0.5
2005/11/15,11:20,0,5,36,48.042,137,4.908,0.03,51.84,31.15,0.17,0.34
2005/11/15,11:25,0,5,36,48.06,137,4.92,0.02,37.77,28.25,0.13,0.24
2005/11/15,11:30,0,5,36,48.084,137,4.938,0.03,51.84,31.15,0.17,0.34
2005/11/15,11:35,0,5,36,48.108,137,4.956,0.03,51.84,31.15,0.17,0.34
2005/11/15,11:40,0,5,36,48.12,137,4.956,0.01,22.19,0.05,0.07,0.14


�A,Time,Time int.,,Lat.,,Long.,,Distance,,Direction,Speed,
Date(yyyy/mm/dd),(hh:mm),(hour),(min),(deg),(min),(deg),(min),(miles),(meter),(deg),(m/s),(knots)
2005/11/15,12:00,0,,36,47.64,137,4.278,,,,,
2005/11/15,12:10,0,10,36,47.652,137,4.338,0.05,91.97,76.09,0.15,0.3
2005/11/15,12:20,0,10,36,47.658,137,4.386,0.04,72.26,81.22,0.12,0.23
2005/11/15,12:25,0,5,36,47.688,137,4.41,0.04,65.98,32.81,0.22,0.43
2005/11/15,12:30,0,5,36,47.682,137,4.428,0.02,28.98,112.57,0.1,0.19
2005/11/15,12:40,0,10,36,47.706,137,4.452,0.03,56.96,38.86,0.09,0.18
2005/11/15,12:45,0,5,36,47.736,137,4.464,0.03,58.29,17.89,0.19,0.38
2005/11/15,12:50,0,5,36,47.736,137,4.476,0.01,17.85,90.06,0.06,0.12
2005/11/15,12:55,0,5,36,47.754,137,4.488,0.02,37.78,28.25,0.13,0.24
2005/11/15,13:00,0,5,36,47.772,137,4.494,0.02,34.47,15.06,0.11,0.22
2005/11/15,13:05,0,5,36,47.79,137,4.506,0.02,37.78,28.25,0.13,0.24
2005/11/15,13:10,0,5,36,47.82,137,4.512,0.03,56.2,9.19,0.19,0.36
2005/11/15,13:15,0,5,36,47.826,137,4.524,0.01,21.02,58.18,0.07,0.14
2005/11/15,13:25,0,10,36,47.862,137,4.542,0.04,71.77,21.96,0.12,0.23
2005/11/15,13:30,0,5,36,47.892,137,4.536,0.03,56.2,350.92,0.19,0.36
2005/11/15,13:40,0,10,36,47.916,137,4.524,0.03,47.84,338.15,0.08,0.16
2005/11/15,13:45,0,5,36,47.94,137,4.512,0.03,47.84,338.15,0.16,0.31
2005/11/15,13:50,0,5,36,47.97,137,4.494,0.03,61.61,334.3,0.21,0.4
2005/11/15,13:55,0,5,36,48.006,137,4.464,0.04,80.15,326.23,0.27,0.52
2005/11/15,14:05,0,5,36,48.024,137,4.434,0.03,55.67,306.78,0.19,0.36
2005/11/15,14:10,0,5,36,48.06,137,4.398,0.05,85.44,321.25,0.28,0.55
2005/11/15,14:15,0,5,36,48.102,137,4.35,0.06,105.51,317.47,0.35,0.68
2005/11/15,14:20,0,5,36,48.108,137,4.332,0.02,28.98,292.57,0.1,0.19
2005/11/15,14:25,0,5,36,48.156,137,4.29,0.06,108.55,324.92,0.36,0.7
2005/11/15,14:30,0,5,36,48.186,137,4.26,0.04,71.2,321.25,0.24,0.46
2005/11/15,14:35,0,5,36,48.258,137,4.236,0.07,137.87,345.05,0.46,0.89


�B,Time,Time int.,,Lat.,,Long.,,Distance,,Direction,Speed,
Date(yyyy/mm/dd),(hh:mm),(hour),(min),(deg),(min),(deg),(min),(miles),(meter),(deg),(m/s),(knots)
2005/11/15,9:45,0,,36,47.658,137,4.254,,,,,
2005/11/15,9:50,0,5,36,47.658,137,4.32,0.05,98.18,90.06,0.33,0.64
2005/11/15,9:55,0,5,36,47.664,137,4.374,0.04,81.09,82.19,0.27,0.53
2005/11/15,10:00,0,5,36,47.664,137,4.422,0.04,71.4,90.06,0.24,0.46
2005/11/15,10:05,0,5,36,47.682,137,4.476,0.05,86.95,67.54,0.29,0.56
2005/11/15,10:10,0,5,36,47.706,137,4.512,0.04,69.56,50.4,0.23,0.45
2005/11/15,10:15,0,5,36,47.718,137,4.566,0.04,83.33,74.61,0.28,0.54
2005/11/15,10:20,0,5,36,47.73,137,4.602,0.03,57.97,67.54,0.19,0.38
2005/11/15,10:25,0,5,36,47.742,137,4.65,0.04,74.77,72.79,0.25,0.48
2005/11/15,10:30,0,5,36,47.76,137,4.68,0.03,55.68,53.33,0.19,0.36
2005/11/15,10:35,0,5,36,47.772,137,4.716,0.03,57.97,67.54,0.19,0.38
2005/11/15,10:40,0,5,36,47.796,137,4.752,0.04,69.56,50.4,0.23,0.45
2005/11/15,10:45,0,5,36,47.814,137,4.794,0.04,70.79,62,0.24,0.46
2005/11/15,10:50,0,5,36,47.832,137,4.836,0.04,70.79,62,0.24,0.46
2005/11/15,10:55,0,5,36,47.856,137,4.842,0.02,45.28,11.42,0.15,0.29
2005/11/15,11:00,0,5,36,47.88,137,4.878,0.04,69.55,50.39,0.23,0.45
2005/11/15,11:05,0,5,36,47.898,137,4.908,0.03,55.67,53.33,0.19,0.36
2005/11/15,11:10,0,5,36,47.934,137,4.944,0.05,85.44,38.86,0.28,0.55
2005/11/15,11:15,0,5,36,47.952,137,4.962,0.02,42.72,38.86,0.14,0.28
2005/11/15,11:20,0,5,36,47.97,137,4.98,0.02,42.72,38.86,0.14,0.28
2005/11/15,11:25,0,5,36,47.994,137,4.998,0.03,51.84,31.15,0.17,0.34
2005/11/15,11:30,0,5,36,48.006,137,5.028,0.03,49.84,63.6,0.17,0.32
2005/11/15,11:35,0,5,36,48.036,137,5.052,0.04,65.98,32.8,0.22,0.43
2005/11/15,11:40,0,5,36,48.066,137,5.046,0.03,56.2,350.91,0.19,0.36
2005/11/15,11:45,0,5,36,48.078,137,5.058,0.02,28.48,38.85,0.09,0.18


�C,Time,Time int.,,Lat.,,Long.,,Distance,,Direction,Speed,
Date(yyyy/mm/dd),(hh:mm),(hour),(min),(deg),(min),(deg),(min),(miles),(meter),(deg),(m/s),(knots)
2005/11/15,12:00,0,,36,47.688,137,4.164,,,,,
2005/11/15,12:05,0,5,36,47.682,137,4.212,0.04,72.26,98.89,0.24,0.47
2005/11/15,12:10,0,5,36,47.712,137,4.278,0.06,112.77,60.58,0.38,0.73
2005/11/15,12:15,0,5,36,47.718,137,4.32,0.03,63.45,79.98,0.21,0.41
2005/11/15,12:20,0,5,36,47.748,137,4.362,0.05,83.56,48.45,0.28,0.54
2005/11/15,12:25,0,5,36,47.766,137,4.392,0.03,55.68,53.33,0.19,0.36
2005/11/15,12:30,0,5,36,47.778,137,4.398,0.01,23.92,21.96,0.08,0.16
2005/11/15,12:35,0,5,36,47.814,137,4.434,0.05,85.45,38.86,0.28,0.55
2005/11/15,12:40,0,5,36,47.844,137,4.446,0.03,58.29,17.89,0.19,0.38
2005/11/15,12:45,0,5,36,47.874,137,4.452,0.03,56.2,9.19,0.19,0.36
2005/11/15,12:50,0,5,36,47.91,137,4.464,0.04,68.94,15.06,0.23,0.45
2005/11/15,12:55,0,5,36,47.934,137,4.476,0.03,47.84,21.96,0.16,0.31
2005/11/15,13:00,0,5,36,47.952,137,4.464,0.02,37.78,331.86,0.13,0.24
2005/11/15,13:05,0,5,36,47.994,137,4.464,0.04,77.68,0.06,0.26,0.5
2005/11/15,13:10,0,5,36,48.018,137,4.452,0.03,47.84,338.15,0.16,0.31
2005/11/15,13:15,0,5,36,48.042,137,4.446,0.02,45.28,348.69,0.15,0.29
2005/11/15,13:20,0,5,36,48.078,137,4.44,0.04,67.18,352.42,0.22,0.44
2005/11/15,13:30,0,10,36,48.09,137,4.41,0.03,49.84,296.5,0.08,0.16
2005/11/15,13:35,0,5,36,48.174,137,4.362,0.09,170.98,335.38,0.57,1.11
2005/11/15,13:40,0,5,36,48.21,137,4.326,0.05,85.44,321.25,0.28,0.55
2005/11/15,13:50,0,10,36,48.204,137,4.26,0.05,98.79,263.61,0.16,0.32
2005/11/15,13:55,0,5,36,48.27,137,4.218,0.07,137.13,332.96,0.46,0.89
2005/11/15,14:00,0,5,36,48.288,137,4.188,0.03,55.67,306.79,0.19,0.36
